Meteo Giornale » Osservazioni meteo Stati Uniti (USA) » Quakertown Arp

ore: 02:35 - Osservazioni Meteo Quakertown Arp
Lat. 40° 26' N Lon. 75° 23' W Alt. 160 metri s.l.m.

foschia

22 °C

Foschia

Temp. 24 Ore

20 °C

31 °C

Est

9.3 Km/h

Dew point 22 °C

Umidità 100 %

Visibilità  3 Km

Il sole sorge alle ore 06:30

Il sole tramonta alle ore 19:32

Data e Ora Cielo e Fenomeni T °C DP °C Um. % Pres. hPa Vis. km Vento km/h
Oggi h: 02:35 foschia Foschia 22 22 100 1018 3 E 9.3
Oggi h: 02:15 foschia Foschia 22 22 100 1018 2 N 0
Oggi h: 01:55 foschia Foschia 22 22 100 1018 2 E 7.4
Oggi h: 01:35 coperto Coperto 22 22 100 1018 13 N 5.5
Oggi h: 01:15 coperto Coperto 22 22 100 1018 10 N 0
Oggi h: 00:55 molto_nuvoloso Molto Nuvoloso 22 21 94 1018 10 N 0
Oggi h: 00:35 sereno Sereno 22 21 94 1018 10 N 0
Oggi h: 00:15 sereno Sereno 22 21 94 1018 10 N 0
Ieri h: 23:55 nuvoloso Nuvoloso 21 21 100 1018 10 N 0
Ieri h: 23:35 poco_nuvoloso Poco Nuvoloso 21 21 100 1017 10 N 0
Ieri h: 23:15 poco_nuvoloso Poco Nuvoloso 21 21 100 1017 10 N 0
Ieri h: 22:55 coperto Coperto 22 21 94 1017 10 N 0
Ieri h: 22:35 nuvoloso Nuvoloso 22 21 94 1017 10 N 0
Ieri h: 22:15 sereno Sereno 21 21 100 1016 10 N 0
Ieri h: 21:55 sereno Sereno 22 20 88 1016 10 N 0
Ieri h: 21:35 sereno Sereno 22 20 88 1015 10 N 0
Ieri h: 21:15 sereno Sereno 22 20 88 1015 10 N 11.1
Ieri h: 20:55 sereno Sereno 22 21 94 1015 10 N 0
Ieri h: 20:35 sereno Sereno 22 20 88 1015 10 N 0
Ieri h: 20:15 coperto_pioggia Pioviggine 22 20 88 1015 8 N 0
Ieri h: 19:55 coperto_pioggia Pioggia 23 21 88 1015 5 O 29.6
Ieri h: 19:35 poco_nuvoloso Poco Nuvoloso 27 25 88 1014 13 N 0
Ieri h: 19:15 sereno Sereno 27 25 88 1014 10 N 0
Ieri h: 18:55 sereno Sereno 27 25 88 1014 10 N 0
Ieri h: 18:35 sereno Sereno 29 25 79 1014 10 N 0
Ieri h: 18:15 sereno Sereno 30 24 70 1014 10 N 0
Ieri h: 17:55 poco_nuvoloso Poco Nuvoloso 30 25 74 1014 10 N 0
Ieri h: 17:35 nuvoloso Nuvoloso 30 24 70 1014 10 N 0
Ieri h: 17:15 nuvoloso Nuvoloso 30 24 70 1014 10 N 0
Ieri h: 16:55 molto_nuvoloso Molto Nuvoloso 31 24 66 1014 10 N 0
Ieri h: 16:35 molto_nuvoloso Molto Nuvoloso 30 24 70 1014 10 N 5.5
Ieri h: 16:15 nuvoloso Nuvoloso 30 24 70 1014 10 N 11.1
Ieri h: 15:55 nuvoloso Nuvoloso 30 24 70 1014 10 O/SO 11.1
Ieri h: 15:35 sereno Sereno 30 24 70 1014 14 S/SO 14.8
Ieri h: 15:15 sereno Sereno 30 24 70 1014 10 SO 16.7
Ieri h: 14:55 sereno Sereno 30 24 70 1015 10 SO 14.8
Ieri h: 14:35 poco_nuvoloso Poco Nuvoloso 29 23 70 1015 10 N 9.3
Ieri h: 14:15 nuvoloso Nuvoloso 29 23 70 1015 10 N 9.3
Ieri h: 13:55 molto_nuvoloso Molto Nuvoloso 29 23 70 1015 10 N 7.4
Ieri h: 13:35 poco_nuvoloso Poco Nuvoloso 29 23 70 1015 10 N 0
Ieri h: 13:15 poco_nuvoloso Poco Nuvoloso 29 24 74 1015 10 N 7.4
Ieri h: 12:55 sereno Sereno 28 23 74 1015 10 S/SO 9.3
Ieri h: 12:35 poco_nuvoloso Poco Nuvoloso 27 23 78 1016 10 S 7.4
Ieri h: 12:15 molto_nuvoloso Molto Nuvoloso 26 23 83 1016 10 N 5.5
Ieri h: 11:55 molto_nuvoloso Molto Nuvoloso 26 23 83 1016 10 N 0
Ieri h: 11:35 nuvoloso Nuvoloso 26 23 83 1016 10 N 5.5
Ieri h: 11:15 nuvoloso Nuvoloso 25 23 88 1016 10 N 5.5
Ieri h: 10:55 nuvoloso Nuvoloso 26 23 83 1016 10 N 0
Ieri h: 10:35 sereno Sereno 25 23 88 1016 10 N 0
Ieri h: 10:15 sereno Sereno 25 23 88 1016 10 S/SO 7.4
Ieri h: 09:55 sereno Sereno 25 23 88 1016 14 O/SO 7.4
Ieri h: 09:35 sereno Sereno 24 22 88 1016 14 S 7.4
Ieri h: 09:15 sereno Sereno 23 22 94 1016 11 N 0
Ieri h: 08:55 foschia Foschia 23 22 94 1016 10 N 0
Ieri h: 08:35 foschia Foschia 22 22 100 1017 10 N 0
Ieri h: 08:15 foschia Foschia 22 21 94 1016 8 N 0
Ieri h: 07:55 foschia Foschia 21 21 100 1016 8 N 0
Ieri h: 07:35 foschia Foschia 21 21 100 1016 6 N 0
Ieri h: 07:15 foschia Foschia 21 21 100 1017 6 N 0
Ieri h: 06:55 foschia Foschia 21 21 100 1016 8 N 0
Ieri h: 06:35 foschia Foschia 21 20 94 1016 10 N 0
Ieri h: 06:15 foschia Foschia 20 20 100 1017 8 N 0
Ieri h: 05:55 foschia Foschia 20 20 100 1016 6 N 0
Ieri h: 05:35 foschia Foschia 20 20 100 1016 8 N 0
Ieri h: 05:15 foschia Foschia 20 20 100 1017 8 N 0
Ieri h: 04:55 foschia Foschia 20 20 100 1016 8 N 0
Ieri h: 04:35 foschia Foschia 20 20 100 1017 10 N 0
Ieri h: 04:15 foschia Foschia 20 20 100 1017 8 N 0
Ieri h: 03:55 foschia Foschia 21 20 94 1017 8 N 0
Ieri h: 03:35 foschia Foschia 21 20 94 1017 8 N 0
Ieri h: 03:15 foschia Foschia 21 20 94 1017 10 N 0
Ieri h: 02:55 coperto Coperto 21 20 94 1017 11 N 0
Ieri h: 02:35 foschia Foschia 21 20 94 1017 10 N 0